Lid_Strength_Index
0 1 1 1 1 1 1 1 1 1 1 1 1 1 1 0 0 1 1 1 1 1 2 2 3 3 2 5 5 2 1 2 3 3 4 4 5 6 8 7 7 8 7 7 6 6 6
-0 0 1 1 1 1 1 1 2 2 1 1 1 2 2 1 1 1 1 1 1 1 1 2 3 3 3 8 1 1 1 2 2 3 4 3 4 4 7 7 8 7 7 7 6 6 6
-0 -0 0 1 1 1 1 1 2 2 2 2 2 2 2 2 1 1 1 1 2 2 3 4 3 2 4 5 0 0 0 1 2 2 4 2 2 4 5 7 5 6 8 7 7 7 7
-0 -0 -0 1 1 2 1 1 2 2 2 2 2 3 3 3 3 3 3 3 2 3 4 5 4 4 6 0 -0 0 0 1 0 1 2 1 2 4 5 5 6 8 8 10 8 7 7
-0 -0 -0 0 1 2 2 2 2 2 2 2 2 2 3 3 3 3 3 3 4 4 5 5 5 5 7 1 3 1 1 3 2 2 1 2 3 5 6 9 10 9 12 11 9 7 7
-1 -0 -0 -0 1 1 1 2 2 2 2 2 2 2 3 3 3 4 4 4 4 5 5 4 4 7 5 5 3 3 3 3 3 5 5 6 7 8 8 10 14 12 11 10 10 8 7
-0 -0 -0 -0 0 1 1 1 2 2 2 2 2 2 3 3 4 4 5 7 8 8 5 6 5 6 4 3 3 4 3 4 5 7 9 8 10 11 9 8 8 9 10 10 8 7 8
0 -0 -0 -0 -0 -0 0 1 2 2 2 2 3 3 3 4 4 5 5 6 6 5 7 4 5 5 3 3 6 4 3 6 7 9 8 8 10 8 7 7 8 8 10 10 8 7 8
1 0 -0 -0 -0 -0 0 0 1 2 2 2 3 3 4 4 5 5 5 5 5 4 8 6 4 4 4 3 5 5 4 6 7 8 8 9 8 6 7 8 9 9 10 10 10 8 8
0 0 0 -0 -0 -0 0 1 1 2 2 3 3 4 5 5 6 6 7 5 5 4 12 10 7 5 3 3 6 3 3 4 7 9 8 8 7 8 8 9 8 11 8 8 9 10 13
1 0 0 0 0 1 1 1 1 2 2 3 4 5 5 4 6 7 5 4 5 5 20 8 6 4 4 6 6 6 3 5 8 8 8 9 8 8 9 9 7 10 7 9 9 11 11
0 -0 0 0 0 1 1 2 2 3 3 4 4 4 5 4 3 3 3 4 5 14 19 9 7 8 7 6 6 6 7 5 5 8 7 8 6 7 7 7 8 8 9 9 9 11 16
0 0 0 1 1 1 2 3 3 3 3 4 5 4 5 3 5 2 2 5 14 18 8 10 10 9 8 8 8 8 9 9 10 13 12 9 9 7 6 8 7 8 10 15 17 17 18
0 0 -0 1 1 1 2 2 3 3 3 4 4 3 3 3 1 2 4 9 17 11 10 9 8 8 10 8 8 8 9 10 8 9 11 12 14 9 7 8 10 9 10 15 19 19 16
0 0 0 0 1 1 2 2 2 3 3 3 3 4 4 2 1 3 7 15 14 10 8 10 10 10 10 9 9 9 9 9 8 7 12 12 12 7 7 7 7 10 12 9 14 13 17
-0 0 0 1 1 2 2 2 2 2 2 3 5 6 6 5 2 4 10 13 10 7 8 8 12 10 11 10 10 10 9 8 8 7 6 9 13 8 8 7 7 8 7 14 13 20 20
0 0 2 2 2 2 2 1 1 2 2 3 6 9 8 4 2 7 14 11 8 7 8 10 9 10 10 10 9 10 10 8 7 8 7 8 10 10 8 10 10 9 11 11 11 14 18
1 1 2 2 3 2 3 2 1 1 3 3 8 14 8 6 10 13 12 9 6 7 7 8 8 8 9 9 9 9 9 9 6 6 9 7 10 13 11 7 7 8 10 10 17 16 15
2 2 3 3 3 3 2 2 2 2 2 3 9 11 7 6 13 13 10 9 7 7 8 8 9 7 7 8 10 8 9 7 6 7 8 7 10 14 12 10 8 9 9 9 9 11 15
2 3 2 3 3 3 2 3 3 3 3 2 7 12 11 11 11 10 11 11 10 7 7 8 8 7 8 9 7 9 9 7 6 6 7 6 9 12 15 11 10 11 10 9 11 15 14
3 2 3 2 2 2 3 3 4 4 5 3 6 10 8 12 12 10 10 10 10 10 8 7 8 8 8 10 9 9 8 9 6 7 7 8 12 11 10 9 9 10 10 10 11 10 14
2 2 1 1 1 1 2 2 3 4 5 4 9 8 7 8 8 9 10 11 11 9 9 9 10 8 8 10 9 11 8 9 9 7 8 7 13 12 13 10 10 11 11 10 10 10 11
2 2 1 1 1 1 1 2 2 3 3 4 5 5 7 8 9 10 10 10 10 8 8 7 8 8 9 8 6 6 6 6 7 9 9 9 11 12 15 10 11 14 12 10 9 8 9
1 1 1 1 1 1 2 2 2 2 2 4 5 6 7 10 9 9 8 8 9 9 10 8 7 8 7 6 7 7 8 9 9 8 8 10 10 11 14 13 18 12 9 9 9 9 8
0 1 1 1 1 1 2 2 2 2 1 3 3 5 6 9 8 8 8 8 8 8 9 9 8 6 6 8 11 13 13 12 12 10 10 9 11 13 16 16 13 13 11 10 10 10 8
0 1 1 1 1 1 2 2 2 2 2 3 3 2 4 8 8 6 8 7 9 9 9 8 7 5 7 9 11 16 17 14 14 12 9 9 9 12 13 17 18 13 9 6 6 12 6
-0 0 1 1 1 1 1 1 2 2 1 2 2 0 3 7 6 6 8 7 6 7 9 8 8 8 7 10 13 14 15 11 15 15 14 11 11 14 14 15 13 9 8 6 13 12 6
-0 0 0 0 0 0 0 0 1 1 1 1 2 0 3 5 5 5 5 5 6 6 8 6 8 7 9 11 12 12 13 12 12 11 12 12 13 13 12 15 16 7 6 10 8 6 6
-1 -1 -0 -0 -0 -0 -0 -0 0 1 1 1 3 1 1 3 5 3 3 3 4 4 6 5 7 7 7 9 9 9 11 10 11 14 8 13 10 11 10 11 6 5 6 4 5 6 5